Los Angeles, CA

8:04 AM PST on February 20, 2018 (GMT -0800)
Los Angeles International

Weather History for KLAX - April, 2013

Change the Weather History Date:

Monday, April 22, 2013

  Actual Average Record
Temperature  
Mean Temperature 62 °F 61 °F  
Max Temperature 66 °F 67 °F 90 °F (1987)
Min Temperature 58 °F 55 °F 45 °F (1971)
Degree Days  
Heating Degree Days 3 5  
Month to date heating degree days 66 123  
Since 1 July heating degree days 1113 1273  
Cooling Degree Days 0 1  
Month to date cooling degree days 4 1  
Year to date cooling degree days 20 16  
Growing Degree Days 10 (Base 50)    
Moisture  
Dew Point 52 °F    
Average Humidity 75    
Maximum Humidity 86    
Minimum Humidity 63    
Precipitation  
Precipitation 0.00 in 0.02 in 0.52 in (1955)
Month to date precipitation 0.06 0.57  
Year to date precipitation 2.22 8.38  
Since 1 July precipitation 6.50  
Sea Level Pressure  
Sea Level Pressure 29.97 in    
Wind  
Wind Speed 7 mph (WSW)    
Max Wind Speed 16 mph    
Max Gust Speed 21 mph    
Visibility 9 miles    
Events Fog    
T = Trace of Precipitation, MM = Missing Value Source: NWS Daily Summary

Daily Weather History Graph

Daily Weather History Graph

Search for Another Location

Airport or City:

Trip Planner

Search our weather history database for the weather conditions in past years. The results will help you decide how hot, cold, wet, or windy it might be!

Date:

Astronomy

Apr. 22, 2013 Rise Set
Actual Time 6:14 AM PDT 7:30 PM PDT
Civil Twilight 5:47 AM PDT 7:56 PM PDT
Nautical Twilight 5:16 AM PDT 8:27 PM PDT
Astronomical Twilight 4:44 AM PDT 9:00 PM PDT
Moon 4:32 PM PDT (4/22) 4:02 AM PDT (4/22)
Length of Visible Light 14h 08m
Length of Day
13h 16m
Waxing Gibbous, 88% of the Moon is Illuminated
Apr 22
Waxing Gibbous
Apr 25
Full
May 2
Last Quarter
May 9
New
May 17
First Quarter

Hourly Weather History & Observations

Time (PDT) Temp. Dew Point Humidity Pressure Visibility Wind Dir Wind Speed Gust Speed Precip Events Conditions
12:53 AM 60.1 °F 54.0 °F 80% 30.01 in 7.0 mi Variable 6.9 mph - N/A   Overcast
1:53 AM 59.0 °F 54.0 °F 83% 30.00 in 7.0 mi East 4.6 mph - N/A   Mostly Cloudy
2:53 AM 57.9 °F 53.1 °F 84% 29.99 in 7.0 mi Calm Calm - N/A   Mostly Cloudy
3:53 AM 59.0 °F 53.1 °F 81% 29.99 in 7.0 mi SSE 4.6 mph - N/A   Overcast
4:53 AM 59.0 °F 52.0 °F 78% 29.98 in 7.0 mi ESE 5.8 mph - N/A   Overcast
5:53 AM 57.9 °F 52.0 °F 81% 29.98 in 7.0 mi East 6.9 mph - N/A   Overcast
6:53 AM 57.9 °F 51.1 °F 78% 29.99 in 6.0 mi East 6.9 mph - N/A Fog Patches of Fog
7:53 AM 59.0 °F 51.1 °F 75% 30.01 in 6.0 mi Calm Calm - N/A   Overcast
8:53 AM 62.1 °F 51.1 °F 67% 30.01 in 7.0 mi East 3.5 mph - N/A   Mostly Cloudy
9:05 AM 60.8 °F 51.8 °F 72% 30.01 in 7.0 mi Calm Calm - N/A   Scattered Clouds
9:53 AM 64.0 °F 51.1 °F 63% 30.01 in 8.0 mi SSW 3.5 mph - N/A   Partly Cloudy
10:53 AM 64.0 °F 52.0 °F 65% 30.01 in 10.0 mi West 8.1 mph - N/A   Partly Cloudy
11:53 AM 64.0 °F 52.0 °F 65% 30.00 in 10.0 mi West 8.1 mph - N/A   Partly Cloudy
12:53 PM 64.9 °F 52.0 °F 63% 29.98 in 10.0 mi West 10.4 mph - N/A   Partly Cloudy
1:53 PM 64.9 °F 52.0 °F 63% 29.96 in 10.0 mi WSW 10.4 mph - N/A   Scattered Clouds
2:53 PM 64.0 °F 52.0 °F 65% 29.94 in 10.0 mi WSW 12.7 mph - N/A   Partly Cloudy
3:53 PM 64.0 °F 52.0 °F 65% 29.92 in 10.0 mi West 12.7 mph - N/A   Scattered Clouds
4:53 PM 63.0 °F 52.0 °F 67% 29.91 in 10.0 mi West 13.8 mph - N/A   Scattered Clouds
5:53 PM 61.0 °F 52.0 °F 72% 29.92 in 10.0 mi WSW 16.1 mph - N/A   Scattered Clouds
6:53 PM 59.0 °F 52.0 °F 78% 29.92 in 10.0 mi West 12.7 mph - N/A   Mostly Cloudy
7:53 PM 59.0 °F 52.0 °F 78% 29.93 in 10.0 mi West 8.1 mph - N/A   Mostly Cloudy
8:53 PM 57.9 °F 52.0 °F 81% 29.95 in 10.0 mi West 8.1 mph - N/A   Mostly Cloudy
9:03 PM 57.2 °F 51.8 °F 82% 29.95 in 10.0 mi West 6.9 mph - N/A   Mostly Cloudy
9:53 PM 57.9 °F 52.0 °F 81% 29.96 in 10.0 mi SW 5.8 mph - N/A   Overcast
10:53 PM 59.0 °F 51.1 °F 75% 29.95 in 10.0 mi WSW 4.6 mph - N/A   Overcast
11:53 PM 59.0 °F 52.0 °F 78% 29.95 in 10.0 mi West 4.6 mph - N/A   Overcast